RH
65 68 68 73 74 69 72 71 73 76 78 73 76 79 76 75 79 75 77 79 81 83 83 86 88 92 92 88 88 95 96 95
68 69 73 73 68 70 72 74 74 76 76 78 79 80 79 77 74 72 78 78 79 81 80 79 80 89 89 92 88 90 98 97
66 72 76 77 72 75 72 76 77 78 80 79 84 81 83 78 77 74 74 78 78 74 74 76 74 83 85 90 92 90 94 96
70 71 78 80 76 78 74 77 80 79 78 78 78 75 77 79 78 77 74 73 76 77 77 78 80 81 88 85 92 91 92 90
75 79 75 79 77 79 80 76 78 70 78 81 85 80 77 73 74 72 75 74 76 76 76 77 80 78 87 88 82 91 90 93
83 84 80 77 76 81 86 82 76 76 78 80 81 82 81 75 71 75 72 72 72 74 76 77 81 83 83 87 89 86 91 89
80 82 77 78 80 84 87 80 76 75 76 76 78 84 83 75 76 77 78 76 75 73 76 75 80 85 86 86 86 87 91 90
86 82 83 82 83 84 76 80 80 76 77 77 77 81 76 75 74 76 79 78 80 79 80 83 82 83 85 86 89 89 90 91
86 86 86 86 83 85 87 85 82 78 77 78 77 73 71 72 73 76 77 81 83 82 84 83 84 83 85 89 91 91 90 92
80 79 83 87 86 86 90 90 84 80 82 80 79 77 71 73 75 79 81 78 76 81 85 86 84 85 86 89 93 94 93 92
80 80 82 85 85 87 90 89 89 86 85 84 79 72 70 77 80 81 80 81 82 84 85 85 85 86 85 90 94 92 95 93
78 79 83 84 83 85 89 89 89 85 83 84 84 80 73 82 83 82 82 81 82 84 84 86 86 86 86 89 90 90 94 91
77 81 83 83 85 86 87 88 90 85 82 84 84 83 75 84 85 82 82 81 83 83 83 84 84 84 85 89 88 89 92 91
74 87 93 93 87 88 88 87 86 83 81 84 86 86 78 83 85 82 81 82 82 82 82 86 86 89 89 93 86 86 89 93
75 91 93 94 91 89 87 86 83 82 82 85 82 86 79 78 82 82 83 81 82 83 84 84 85 90 95 91 93 87 89 88
75 92 92 94 92 91 87 85 82 83 83 78 78 80 75 76 83 82 82 82 82 82 84 84 84 87 94 98 93 92 90 91
76 78 86 91 89 85 82 84 84 84 85 78 75 74 76 78 83 81 83 82 81 84 86 87 90 85 97 99 98 96 90 91
78 80 82 82 85 81 87 85 83 85 82 80 74 76 83 79 82 80 81 82 80 85 87 88 90 89 92 98 94 94 94 93
74 74 73 78 85 87 81 81 84 78 80 78 77 79 78 77 81 84 81 79 83 85 86 88 90 85 90 94 97 91 96 92
Wind_Speed
4 6 5 6 7 6 6 6 8 7 5 6 3 3 5 5 5 6 9 7 9 8 8 8 8 8 8 9 14 9 9 9
5 4 6 7 7 7 6 7 9 9 8 8 6 7 8 6 6 8 7 7 8 8 8 10 10 8 11 11 13 14 8 8
5 5 6 6 6 6 7 8 9 6 4 4 3 6 4 7 5 7 9 8 8 9 9 10 12 9 12 11 12 10 11 8
5 4 5 6 7 9 9 8 7 6 6 5 5 5 4 5 7 7 7 10 9 10 11 10 10 8 9 12 11 14 12 10
5 4 6 6 6 6 7 8 8 7 7 7 8 7 10 9 9 9 10 11 9 10 12 12 12 10 10 10 11 12 13 14
5 2 3 5 7 8 7 7 7 7 8 6 6 9 8 9 10 13 13 10 12 12 11 12 12 10 10 12 13 14 12 13
4 1 3 4 6 6 6 7 8 9 9 9 10 10 12 12 12 11 10 10 10 13 12 13 13 13 13 12 13 16 15 15
3 4 5 6 7 7 8 11 11 11 10 9 10 10 12 14 14 11 15 12 10 12 14 13 12 14 14 15 15 16 16 15
3 2 3 5 7 8 9 10 11 10 10 11 9 11 9 10 12 12 12 11 12 15 14 15 15 16 14 15 13 14 17 16
4 2 4 6 7 8 8 9 9 9 9 9 10 10 13 12 14 13 12 16 13 15 16 16 16 17 15 15 13 18 18 18
3 3 3 4 5 6 7 7 9 9 8 7 9 11 13 11 12 15 17 16 17 17 18 18 19 17 16 16 15 17 17 15
4 2 2 4 5 6 7 7 8 8 8 9 9 10 12 11 11 13 15 17 17 17 18 18 18 18 16 15 19 19 17 18
3 3 1 4 6 7 8 8 7 8 9 10 10 11 13 12 13 14 15 17 17 16 17 18 18 17 16 16 17 19 20 16
4 3 2 4 6 7 7 7 8 8 9 10 10 11 14 14 14 14 15 16 16 16 16 17 17 18 17 16 15 18 19 19
4 2 3 4 5 6 8 7 7 8 10 11 14 12 14 15 14 15 15 15 16 15 16 16 17 17 16 15 17 18 18 17
4 3 2 4 6 6 7 7 8 9 10 12 15 12 14 14 14 15 14 14 14 15 16 16 16 14 11 17 20 20 18 18
4 4 3 5 6 8 9 9 9 8 10 13 14 15 14 15 15 15 14 15 16 15 15 16 17 12 23 26 23 20 19 16
5 4 3 5 7 8 8 9 9 9 11 12 14 14 14 15 14 15 16 18 17 15 15 16 17 16 27 29 32 18 14 12
6 4 2 4 5 6 8 8 9 10 11 13 13 13 14 15 15 15 17 17 17 15 15 16 16 14 27 31 32 18 13 12
Wind_Direction
89 39 9 356 360 353 320 319 342 347 358 352 346 335 349 321 308 308 310 307 308 308 305 303 303 294 293 284 286 226 221 224
102 53 0 355 358 335 322 340 356 1 7 359 358 348 332 317 310 307 302 304 302 304 300 308 306 297 298 291 284 285 223 214
101 47 9 345 314 317 339 354 358 357 351 347 297 307 285 289 295 299 295 295 302 302 296 295 306 299 293 289 293 284 255 212
93 32 350 331 340 340 353 335 339 336 343 330 318 291 306 326 327 313 308 303 300 296 292 286 290 285 281 285 281 281 282 228
93 33 355 337 328 326 335 336 341 340 332 346 337 332 330 320 315 310 313 306 309 309 301 295 293 291 275 271 278 273 274 270
125 58 348 327 343 341 332 316 326 336 345 331 330 331 316 311 314 321 319 324 321 309 304 300 293 288 280 270 268 269 262 270
122 25 339 335 327 319 307 339 347 348 347 336 340 326 319 325 326 323 329 325 319 319 314 311 298 285 282 276 265 261 262 261
126 9 353 344 341 333 352 357 345 345 336 338 336 318 322 327 332 332 330 323 315 318 316 308 298 290 281 277 271 263 257 254
134 5 343 347 340 350 354 346 334 332 335 335 325 318 331 333 331 334 318 314 316 314 309 304 294 290 285 275 264 259 251 250
154 28 10 356 354 349 335 329 318 321 329 326 322 320 337 334 334 329 318 319 318 315 310 309 309 299 295 288 273 265 244 243
151 49 9 351 343 324 317 309 306 310 319 314 313 328 334 331 331 328 323 321 319 318 319 317 321 309 310 303 284 277 241 238
166 110 24 343 329 326 316 316 312 316 320 315 313 326 335 335 331 327 324 321 318 320 320 319 317 317 318 315 309 296 243 237
151 118 38 352 338 328 324 315 311 319 322 323 330 332 339 337 334 329 326 323 317 321 320 316 319 319 319 311 322 320 307 246
145 84 348 320 330 326 310 307 314 321 328 328 332 344 340 338 334 330 327 322 320 324 321 319 319 321 320 317 324 319 312 300
131 104 270 299 312 313 310 315 320 333 334 339 346 345 338 341 335 332 328 324 323 325 322 321 321 320 314 319 318 314 308 295
130 153 308 325 319 308 312 318 336 343 342 346 346 340 339 341 336 332 327 327 328 326 323 322 324 321 314 318 319 314 302 291
125 101 17 342 333 331 330 334 342 346 345 345 343 343 339 343 335 331 331 334 337 331 329 325 324 323 316 317 318 310 294 269
126 94 28 346 339 327 330 336 340 347 346 344 344 341 339 339 335 335 339 340 337 335 331 328 326 324 328 324 328 319 303 290
114 87 21 345 310 325 335 341 343 353 350 343 341 340 342 340 337 341 341 340 339 336 331 329 327 325 332 334 335 331 315 318